Dewpoint
40 42 43 56 57 60 59 58 58 56 57 56 56 56 56 55 54 54 53 52 52 50 50 50 49 48 47
37 40 43 55 57 60 59 57 58 55 56 56 56 55 55 54 53 53 52 51 51 51 51 50 48 47 47
33 39 41 46 55 59 58 57 57 54 56 55 55 55 54 53 53 52 50 50 50 50 50 49 49 47 47
34 37 40 42 47 54 56 57 57 57 55 55 54 54 53 53 51 49 49 49 50 50 49 49 48 48 47
33 35 38 40 44 54 56 56 57 57 56 55 55 54 53 52 49 48 48 49 49 49 49 48 48 48 47
32 33 35 39 42 45 55 54 53 56 55 54 55 54 53 52 49 48 48 48 48 49 48 47 47 47 47
32 34 35 38 42 43 48 54 53 55 55 53 55 53 53 51 49 48 48 48 48 48 47 46 46 46 46
34 34 36 38 41 41 41 43 54 55 54 51 54 53 52 52 48 48 48 47 47 47 47 46 45 45 45
34 36 37 38 39 39 39 41 49 53 54 52 53 52 51 51 49 48 48 47 47 47 46 45 44 44 44
28 33 35 37 38 39 38 38 42 48 54 51 52 47 44 50 49 48 47 47 47 46 46 45 44 42 41
27 28 31 34 36 38 39 39 39 40 47 49 51 48 43 42 48 48 47 47 46 46 46 45 44 41 40
28 28 28 30 32 35 37 39 40 40 42 43 45 49 41 42 43 47 47 47 46 46 45 45 44 42 41
28 29 30 31 31 35 36 37 38 39 41 42 43 50 47 46 44 45 46 46 46 46 45 44 42 41 39
29 29 32 33 33 36 36 36 36 35 40 42 43 44 48 47 46 45 47 43 46 46 45 44 43 41 39
31 30 29 30 32 34 35 35 34 35 34 37 42 44 44 44 44 46 46 45 46 45 44 43 43 42 39
32 31 29 29 29 31 32 32 33 34 34 36 36 37 37 39 45 45 45 45 45 45 44 42 42 42 41
33 31 30 29 29 30 31 31 32 35 35 36 38 38 36 37 37 43 44 45 43 44 44 43 42 42 42
Lifted_Index
9 8 8 6 4 3 3 3 4 4 5 5 6 7 7 8 10 11 12 13 13 14 14 15 16 16 17
10 9 9 7 5 3 3 3 4 4 5 5 6 7 7 9 10 11 12 13 13 14 14 15 16 16 17
11 11 10 8 6 4 3 3 4 4 5 5 6 7 7 8 10 11 12 13 14 14 14 15 16 17 17
11 11 10 8 7 5 3 3 3 4 4 5 6 7 7 8 9 11 12 13 14 14 15 16 16 17 17
11 11 10 8 7 5 4 3 3 3 4 5 6 6 7 8 9 10 11 13 14 15 15 16 16 17 17
12 11 10 9 8 6 4 3 3 3 4 5 5 6 7 8 9 9 10 12 13 15 15 16 17 17 17
15 13 11 10 9 7 5 3 3 3 4 5 5 6 6 7 8 9 9 10 12 14 15 16 17 17 17
17 15 13 13 11 8 6 5 4 3 4 4 5 6 6 6 7 8 9 10 11 13 15 16 17 18 18
18 17 16 15 13 10 7 5 5 4 4 5 5 6 6 6 6 7 8 9 10 11 13 15 17 18 18
18 18 17 16 13 10 7 6 5 5 5 5 5 6 6 6 6 6 7 9 10 10 11 13 16 17 18
17 17 17 16 13 10 8 7 6 5 5 5 5 5 5 6 6 6 7 8 9 10 10 12 14 16 16
15 16 16 16 14 11 9 8 7 7 6 6 5 5 5 5 6 6 7 7 8 9 10 10 12 14 15
15 15 16 16 15 13 10 8 8 8 8 7 6 6 5 5 5 6 6 7 7 8 9 9 11 12 13
17 16 16 16 15 14 11 9 8 8 8 8 7 7 6 5 5 5 6 6 7 7 8 8 9 10 11
18 17 16 15 15 15 13 10 8 7 7 8 8 8 7 6 5 5 5 6 6 7 8 8 8 9 9
18 18 16 15 14 15 15 13 10 8 7 8 8 8 7 7 6 6 5 5 6 6 7 8 8 8 8
18 18 17 15 15 15 15 15 12 10 8 8 8 8 7 6 7 7 6 5 5 6 7 7 7 7 7